Weather History for KPUC - September, 2013

Change the Weather History Date:

Thursday, September 5, 2013

  Actual Average Record
Temperature  
Mean Temperature 78 °F -  
Max Temperature 91 °F 76 °F 94 °F (1976)
Min Temperature 66 °F 50 °F 37 °F (2004)
Cooling Degree Days 13    
Growing Degree Days 28 (Base 50)    
Moisture  
Dew Point 48 °F    
Average Humidity 39    
Maximum Humidity 56    
Minimum Humidity 19    
Precipitation  
Precipitation 0.00 in - - ()
Sea Level Pressure  
Sea Level Pressure 30.01 in    
Wind  
Wind Speed 10 mph (WNW)    
Max Wind Speed 17 mph    
Max Gust Speed 30 mph    
Visibility 10 miles    
Events Rain , Thunderstorm    
Averages and records for this station are not official NWS values.
T = Trace of Precipitation, MM = Missing Value Source: NWS Daily Summary

Daily Weather History Graph

Daily Weather History Graph

Search for Another Location

Airport or City:

Trip Planner

Search our weather history database for the weather conditions in past years. The results will help you decide how hot, cold, wet, or windy it might be!

Date:

Astronomy

Sep. 05, 2013 Rise Set
Actual Time 6:55 AM MDT 7:47 PM MDT
Civil Twilight 6:27 AM MDT 8:14 PM MDT
Nautical Twilight 5:55 AM MDT 8:46 PM MDT
Astronomical Twilight 5:21 AM MDT 9:20 PM MDT
Moon 7:10 AM MDT (9/5) 7:41 PM MDT (9/5)
Length of Visible Light 13h 46m
Length of Day
12h 52m
New Moon, 0% of the Moon is Illuminated
Sep 5
New Moon
Sep 12
First Quarter
Sep 19
Full
Sep 26
Last Quarter
Oct 4
New

Hourly Weather History & Observations

Time (MDT) Temp. Dew Point Humidity Pressure Visibility Wind Dir Wind Speed Gust Speed Precip Events Conditions
12:53 AM 72.0 °F 51.1 °F 48% 29.97 in 10.0 mi WSW 17.3 mph 29.9 mph N/A   Mostly Cloudy
1:05 AM 69.8 °F 53.6 °F 56% 30.26 in 10.0 mi West 16.1 mph 26.5 mph 0.00 in Rain , Thunderstorm Light Rain
1:25 AM 71.6 °F 51.8 °F 50% 30.27 in 10.0 mi NNW 15.0 mph 24.2 mph 0.00 in Thunderstorm Scattered Clouds
1:32 AM 71.6 °F 51.8 °F 50% 30.27 in 10.0 mi NNW 12.7 mph 23.0 mph 0.00 in   Partly Cloudy
1:53 AM 73.0 °F 48.9 °F 42% 29.95 in 10.0 mi North 8.1 mph - 0.00 in   Clear
2:53 AM 70.0 °F 50.0 °F 49% 29.95 in 10.0 mi North 9.2 mph - N/A   Clear
3:53 AM 69.1 °F 48.9 °F 49% 29.93 in 10.0 mi West 5.8 mph - N/A   Clear
4:53 AM 70.0 °F 46.9 °F 44% 29.96 in 10.0 mi North 4.6 mph - N/A   Clear
5:53 AM 71.1 °F 48.0 °F 44% 29.95 in 10.0 mi NNE 15.0 mph - N/A   Partly Cloudy
6:08 AM 71.6 °F 48.2 °F 43% 30.26 in 10.0 mi NNE 8.1 mph - N/A Thunderstorm Mostly Cloudy
6:23 AM 66.2 °F 50.0 °F 56% 30.30 in 10.0 mi West 11.5 mph 17.3 mph N/A   Mostly Cloudy
6:53 AM 66.9 °F 50.0 °F 54% 30.04 in 10.0 mi NW 12.7 mph 25.3 mph N/A   Partly Cloudy
7:53 AM 72.0 °F 48.0 °F 43% 30.01 in 10.0 mi Variable 6.9 mph - N/A   Clear
8:53 AM 71.1 °F 52.0 °F 51% 30.05 in 10.0 mi Calm Calm - N/A   Clear
9:53 AM 73.9 °F 51.1 °F 45% 30.04 in 10.0 mi SW 3.5 mph - N/A   Clear
10:53 AM 78.1 °F 48.0 °F 35% 30.02 in 10.0 mi WSW 3.5 mph - N/A   Clear
11:53 AM 82.9 °F 48.0 °F 29% 30.01 in 10.0 mi SSE 8.1 mph 16.1 mph N/A   Clear
12:53 PM 84.9 °F 48.0 °F 28% 29.98 in 10.0 mi SW 8.1 mph - N/A   Clear
1:53 PM 86.0 °F 48.0 °F 27% 29.96 in 10.0 mi SW 6.9 mph - N/A   Clear
2:53 PM 87.1 °F 46.9 °F 25% 29.94 in 10.0 mi South 10.4 mph 16.1 mph N/A   Clear
3:53 PM 88.0 °F 44.1 °F 22% 29.92 in 10.0 mi Variable 4.6 mph - N/A   Clear
4:53 PM 90.0 °F 42.1 °F 19% 29.89 in 10.0 mi SSW 11.5 mph - N/A   Clear
5:53 PM 89.1 °F 43.0 °F 20% 29.87 in 10.0 mi South 10.4 mph - N/A   Clear
6:53 PM 86.0 °F 43.0 °F 22% 29.89 in 10.0 mi SSW 9.2 mph - N/A   Clear
7:53 PM 81.0 °F 45.0 °F 28% 29.89 in 10.0 mi Calm Calm - N/A   Clear
8:53 PM 78.1 °F 44.1 °F 30% 29.93 in 10.0 mi Calm Calm - N/A   Clear
9:53 PM 72.0 °F 46.0 °F 40% 29.96 in 10.0 mi NNE 9.2 mph - N/A   Clear
10:53 PM 70.0 °F 45.0 °F 41% 29.96 in 10.0 mi NNE 8.1 mph - N/A   Clear
11:53 PM 69.1 °F 45.0 °F 42% 29.95 in 10.0 mi Calm Calm - N/A   Clear